WESTFORD NEEDLES, 2997

Orbit data source: Space-Track

WESTFORD NEEDLES, 2997 is space debris in LEO originally from a launch on Thu, 09 May 1963 UTC launched from the Air Force Western Test Range (AFWTR). Debris objects in space refer to the collection of defunct objects orbiting the Earth. Examples of debris include non-operational satellites, rocket bodies, and fragments generated from explosions, collisions, or faulty payload assembly.

Loading next visibility...
Identifier
2997, 1963-014AU
Orbit
LEO
Last TLE update
2 days ago
Origin
Manufacturer
Unknown
Mission
Spacecraft
Bus & Motor
Unknown
Mass
Unknown
Launch date (UTC)
1963-05-09 (62 years ago)
Launch vehicle
Unknown
Launch site
Air Force Western Test Range (AFWTR)
Object type
Payload
Rocket body
Debris
Shape & HBR
Unknown
Radar Cross Section
Medium (>0.1 m² and <1 m²)

Expand to show TLE details & history

TLE from 2 days ago
0 WESTFORD NEEDLES
1 02997U 63014AU  25198.00040212  .00000173  00000-0  47908-1 0  9995
2 02997  86.8180 205.5260 0876838 259.1356  90.9742  8.77682722287053
Epoch: 2025-07-17T00:00Z
TLE epoch observation values (Epoch: 2025-07-17T00:00:34.743Z)
Latitude
0.00001°
Longitude
-89.69126°
Altitude
3,642.218 km
Speed
6.279 km/s
True Right ascension
13h 42m 06s
True Declination
0° 00' 00"
Sunlit
Object was in daylight at epoch
Visualization orbit readout
Latitude
61.64186°
Longitude
-84.03468°
Altitude
4,393.697 km
Speed
5.827 km/s
Apparent Right ascension
18h 40m 12s
Apparent Declination
61° 31' 41"
Sunlit
Object is in daylight
Visualization observer readout
Local Sidereal Time
11:49:35
Azimuth
32.11° NE
Elevation
28.944°
Doppler factor
1
Orbital elements
Apogee altitude
4,417.522 km
Perigee altitude
2,676.934 km
Semi-major axis
9,925.365 km
Eccentricity
0.08768
Inclination
86.818°
RAAN
205.526°
Arg. of periapsis
259.1356°
True anomaly
100.95124°
Mean anomaly
90.9742°
Eccentric anomaly
95.97086°
Mean motion
2.19494 °/min
Orbital period
164.01 mins
BSTAR
0.047908
Loading maneuver chart data...
Loading SW <> Apogee altitude chart data...
|